Temp
23 23 23 23 23 23 23 24 24 24 24 24 25 25 25 25 25 25 24 24 24 24 24 24 25 24 24 23 23 22 22 22 22 22 22 22 22 22 22 22 22 22
23 23 23 23 23 23 23 24 24 24 24 24 25 25 25 25 25 25 25 24 24 24 24 24 25 24 24 23 23 23 22 22 22 22 22 22 22 22 22 22 22 22
23 23 23 23 23 23 23 23 23 24 24 24 24 25 25 25 25 25 25 25 24 24 24 24 25 24 24 24 23 23 22 22 22 22 22 22 22 22 22 22 22 22
23 23 23 23 23 23 23 23 23 23 23 24 24 24 25 25 25 25 25 25 24 24 24 24 24 24 24 24 23 23 22 22 22 22 22 22 22 22 22 22 22 22
23 23 23 23 23 23 23 23 23 23 23 24 24 24 24 24 25 24 24 24 24 24 24 24 24 24 24 24 23 23 22 22 22 22 22 22 22 22 22 22 21 21
23 23 23 23 23 23 23 23 23 24 24 24 24 24 24 24 24 24 24 24 24 24 24 24 24 24 24 24 23 23 23 22 22 22 22 22 22 22 22 22 21 21
23 23 23 23 23 23 23 23 23 23 24 24 24 24 24 24 24 24 24 24 24 24 24 24 25 24 24 24 23 23 23 22 22 22 22 22 22 22 22 22 21 21
23 23 23 23 23 23 23 23 23 23 24 24 24 24 24 24 24 24 24 24 24 24 24 24 25 25 24 24 24 23 23 22 22 22 22 22 22 22 22 22 21 21
23 23 23 23 23 23 23 23 23 23 23 24 24 24 24 24 24 24 24 24 24 24 24 24 24 24 24 24 24 23 23 22 22 22 22 22 22 22 22 22 21 21
23 23 23 23 23 23 23 24 24 23 23 24 24 24 24 24 24 24 24 24 24 24 24 24 24 24 24 24 24 23 23 23 23 23 22 22 22 22 22 22 22 21
24 24 24 24 24 24 24 24 24 24 23 23 23 23 23 24 24 24 23 23 24 24 24 24 24 23 23 24 24 23 23 23 23 23 23 22 22 22 22 22 22 22
24 24 24 24 24 24 24 24 24 24 24 23 23 23 23 24 24 24 23 23 24 24 24 24 24 23 23 23 23 23 23 23 23 23 23 22 22 22 22 22 22 22
24 24 24 24 24 24 24 24 24 24 24 24 24 24 24 24 24 23 23 23 23 24 24 24 24 23 23 23 23 23 23 23 22 22 22 22 22 22 22 22 22 22
24 24 24 24 24 24 24 24 24 24 24 24 24 24 24 24 24 24 23 23 23 23 23 24 23 23 23 23 23 23 23 22 22 22 22 22 22 22 22 22 22 22
25 24 24 24 24 23 23 24 24 24 24 24 24 24 24 24 24 24 23 23 23 23 23 23 23 23 23 23 23 23 23 22 22 22 22 22 22 22 22 22 22 22
25 24 24 24 24 24 24 24 24 24 24 24 23 24 24 24 24 24 23 23 23 23 23 23 23 23 23 23 23 23 23 22 22 22 22 22 22 22 22 22 22 22
25 25 24 24 24 24 24 24 24 24 23 23 23 23 23 23 23 23 23 23 23 23 23 22 22 23 23 23 23 23 23 22 22 22 22 22 22 22 22 22 22 22
25 25 24 24 24 24 24 24 24 23 23 23 23 23 23 23 23 23 23 23 23 23 23 23 23 23 23 23 23 23 22 22 22 22 22 21 22 22 22 22 22 22
25 25 24 24 24 24 24 24 24 23 23 23 23 23 23 23 23 23 23 23 23 23 23 23 22 23 23 22 23 22 22 22 22 22 22 21 22 22 22 22 22 21
25 25 25 24 24 24 24 24 24 23 24 24 24 23 23 23 23 23 23 23 23 23 23 23 23 22 22 22 23 22 22 22 21 21 22 21 22 22 23 22 22 22
25 25 25 24 24 24 24 24 24 24 24 24 24 24 23 23 23 23 23 23 23 23 23 23 23 22 22 22 22 22 22 22 21 21 21 21 22 22 23 23 23 22
25 25 25 24 24 24 24 24 24 24 23 24 24 24 24 23 23 23 23 23 23 23 23 24 24 23 22 22 22 22 22 22 21 21 21 21 21 22 22 23 22 22
25 25 25 25 24 24 24 24 24 24 24 23 24 24 24 24 24 24 24 23 24 24 23 24 24 23 22 22 22 22 22 21 21 21 20 21 21 21 22 22 21 21
26 25 25 25 25 24 24 24 24 24 24 24 24 24 24 24 24 24 24 24 24 24 24 23 24 24 23 22 22 22 21 21 21 21 20 20 21 21 21 21 21 20
26 26 25 25 25 25 25 25 24 24 24 24 24 24 24 24 24 24 24 24 24 24 24 24 24 24 23 22 22 22 22 21 21 21 21 21 21 21 20 20 20 19
26 26 25 25 25 25 25 25 24 24 24 24 24 24 24 24 24 24 24 24 24 24 24 23 24 24 23 22 22 22 22 21 21 21 21 21 21 21 20 19 19 19
Height
791 793 795 797 799 801 803 805 807 810 812 814 815 817 818 820 822 824 826 828 829 830 832 833 834 835 836 838 839 841 842 844 845 846 847 848 850 851 852 853 854 855
787 790 792 794 796 798 800 802 804 806 808 810 812 814 815 817 819 821 823 825 826 828 829 830 831 833 834 835 837 838 840 841 843 844 845 846 848 849 850 852 853 854
784 786 788 790 792 794 796 798 801 803 805 807 809 811 812 814 816 818 820 822 823 825 826 827 829 830 831 832 834 836 837 839 840 842 843 844 846 847 849 850 851 852
780 782 784 786 788 790 793 795 798 800 802 804 806 808 809 811 813 815 817 819 820 822 823 824 826 827 828 829 831 833 834 836 838 839 841 842 843 845 847 848 850 851
776 778 780 783 785 787 790 792 794 796 799 801 802 804 806 808 810 811 813 815 817 818 819 821 822 824 825 826 828 830 831 833 835 836 838 839 841 843 844 846 847 849
772 775 777 779 781 784 786 788 790 793 795 797 799 801 802 804 806 808 810 811 813 815 816 817 818 820 822 823 825 827 828 830 831 833 835 836 838 840 842 843 845 846
768 770 773 776 778 780 782 784 787 789 791 793 795 797 799 801 802 804 806 807 809 811 812 813 814 816 818 820 821 823 825 827 828 830 832 833 835 837 839 841 842 844
763 766 769 772 774 777 779 781 783 785 787 790 791 793 795 797 798 800 802 803 805 806 807 809 810 812 814 816 818 820 821 823 825 826 828 830 832 834 835 837 839 840
759 762 764 767 770 772 774 777 779 781 783 785 787 789 791 792 794 796 797 799 801 802 803 805 806 808 811 812 814 816 817 819 821 823 825 827 828 830 832 833 835 836
754 757 760 762 765 768 770 773 775 777 778 780 783 785 786 788 790 792 793 795 797 798 799 800 802 804 807 808 810 812 814 816 818 819 821 823 824 826 828 829 830 832
749 752 755 757 760 763 765 768 770 772 774 775 778 780 782 783 785 787 789 790 792 793 794 796 798 800 802 804 806 808 810 812 814 816 818 819 821 822 823 825 826 827
743 746 749 752 755 758 760 763 765 767 769 770 772 775 777 779 780 782 783 785 787 789 790 791 793 796 797 800 802 804 806 809 811 813 814 816 817 818 819 820 821 823
736 739 743 746 750 752 755 758 760 762 764 765 767 770 772 774 776 777 779 781 783 784 785 787 789 792 793 795 798 800 802 805 807 809 811 812 814 814 815 816 817 819
730 734 737 741 745 747 750 752 754 757 758 760 763 764 767 769 771 773 774 776 778 780 781 783 785 787 789 791 794 796 798 801 803 805 807 809 810 811 812 812 813 815
726 730 733 737 740 742 745 747 750 752 754 756 758 760 762 765 767 769 770 771 774 775 777 779 781 782 784 786 789 792 794 797 799 801 803 805 806 807 808 809 810 810
722 726 729 732 735 737 740 743 746 748 750 751 753 755 758 760 762 764 766 767 769 771 773 774 775 777 779 782 785 787 790 793 794 796 799 801 802 803 804 805 805 805
718 721 724 727 730 732 735 738 741 743 745 746 748 750 753 755 757 759 761 763 764 766 768 768 769 771 774 778 781 783 786 788 790 792 794 796 798 799 800 800 800 800
713 716 719 722 724 727 730 732 735 737 739 741 743 745 748 750 752 754 756 759 760 761 762 763 764 766 770 774 776 779 782 785 786 788 790 792 794 795 796 796 796 797
709 712 714 716 718 721 725 727 730 731 733 735 738 740 743 745 747 749 751 753 755 756 758 758 759 762 765 769 772 775 778 781 783 784 786 787 789 791 792 792 792 794
704 706 708 710 713 717 720 722 724 726 728 731 734 736 738 739 741 744 746 747 749 751 753 754 755 757 760 763 767 770 773 777 780 781 782 783 785 786 787 788 788 790
698 700 703 706 709 712 715 717 719 721 723 726 729 731 732 733 735 738 739 741 743 746 748 749 751 752 754 758 761 765 769 773 776 777 778 779 780 782 783 784 785 786
693 696 699 702 705 709 711 713 714 716 718 721 723 725 726 728 730 731 733 734 738 741 742 743 746 748 748 752 756 760 764 768 771 773 774 774 776 778 779 781 782 783
689 692 695 698 702 704 705 707 708 710 713 715 717 719 721 722 723 724 726 728 732 735 735 736 740 742 743 746 750 755 759 763 765 768 769 770 771 773 775 777 778 779
683 686 689 692 695 696 698 701 703 706 708 710 712 714 715 716 717 719 721 722 724 727 728 730 734 735 737 740 744 749 753 757 759 762 764 765 767 768 771 773 774 775
678 682 685 688 690 691 693 697 699 702 704 706 708 709 710 712 714 716 716 716 718 721 722 725 729 730 731 734 738 742 747 751 754 757 759 760 762 764 767 768 770 771
675 679 682 683 684 686 688 692 694 697 699 701 703 705 707 709 711 712 711 711 714 718 720 721 724 726 727 728 732 735 739 744 748 751 753 755 756 759 762 763 765 767
Wind_Speed
41 41 39 36 35 35 34 35 35 34 34 34 33 33 33 32 31 30 30 29 28 26 23 22 22 21 22 21 20 20 19 18 18 17 16 17 18 16 15 14 13 13
41 41 40 36 35 38 37 36 36 35 36 36 35 35 34 33 32 31 31 30 30 29 26 25 24 23 23 23 21 21 20 20 20 19 17 16 18 17 16 15 13 13
42 40 40 38 37 39 38 36 36 36 36 36 36 36 35 34 33 32 32 31 31 30 28 27 27 25 24 24 23 22 22 21 21 21 18 17 17 18 17 17 15 14
43 42 41 39 38 39 38 35 34 35 35 34 36 36 35 34 34 33 33 32 31 31 30 30 29 27 26 25 24 23 23 22 22 22 20 18 18 18 18 18 16 15
45 44 42 40 38 38 38 37 36 35 35 36 37 36 36 35 34 33 33 33 33 32 31 31 30 29 29 27 26 25 24 24 23 23 22 21 19 18 19 19 17 16
43 43 43 41 40 39 37 38 39 37 36 37 37 37 36 36 35 34 34 34 34 33 32 31 31 31 30 29 28 27 26 26 25 24 24 23 21 19 20 20 19 17
41 43 44 43 40 39 38 38 38 39 39 38 38 38 37 36 36 36 35 35 34 33 33 33 33 33 32 31 30 29 29 28 27 26 25 25 23 21 21 22 21 19
40 40 42 41 38 36 36 36 37 40 41 40 39 39 39 38 37 36 36 35 35 34 35 35 34 34 34 33 32 31 30 29 29 27 27 26 25 24 23 23 23 21
37 37 39 40 37 35 34 35 35 38 41 42 41 39 39 40 39 37 37 37 36 36 36 36 36 35 35 35 34 33 32 31 31 29 28 28 28 27 25 25 25 24
36 36 36 37 36 34 34 34 33 34 39 42 42 38 38 41 41 39 38 38 37 37 37 38 37 37 36 36 36 35 34 33 32 31 30 30 29 29 28 27 26 26
37 37 36 36 36 34 34 35 33 31 34 39 41 39 38 40 41 40 39 38 38 39 39 39 39 38 38 37 37 36 35 34 33 32 32 31 31 30 30 29 28 27
37 37 36 36 36 35 34 34 34 32 32 35 39 39 37 37 40 41 40 40 40 40 40 41 40 39 39 38 38 37 36 35 34 34 33 32 32 32 31 31 30 29
39 40 39 37 36 36 35 34 35 34 33 33 36 38 37 35 35 38 41 41 41 41 42 42 41 41 40 39 39 38 37 36 34 34 34 33 33 33 33 32 32 32
42 42 40 37 35 36 37 35 34 35 34 33 34 35 36 35 33 34 38 41 41 42 42 42 42 41 40 40 39 38 37 36 36 35 34 34 34 34 33 33 32 32
45 41 38 38 36 35 38 37 34 33 33 33 34 35 34 34 33 32 34 38 41 42 42 41 41 42 41 40 40 39 38 37 37 37 36 35 35 35 34 33 32 33
44 40 38 39 38 37 38 39 35 33 33 33 34 35 34 34 34 32 31 34 38 41 40 40 41 43 42 41 40 40 40 38 38 38 37 37 36 35 34 34 34 34
41 39 38 39 40 38 38 38 37 35 34 34 35 35 34 34 35 33 31 31 33 36 38 40 42 43 41 41 41 40 39 39 39 39 38 37 37 37 35 35 36 36
39 39 38 39 40 39 38 39 38 35 33 34 34 34 34 34 34 34 33 31 30 32 34 37 41 42 41 41 42 41 40 39 38 39 38 36 37 37 36 36 37 36
38 38 39 38 40 40 38 38 38 36 35 34 33 33 33 33 34 33 33 33 32 32 33 33 36 40 41 41 42 42 42 39 37 37 38 37 38 38 38 38 38 36
37 39 39 38 39 39 36 37 37 36 36 34 32 32 32 33 35 34 34 35 34 34 34 32 33 36 40 42 42 42 42 41 38 37 36 37 39 40 40 40 39 37
38 39 36 34 34 34 34 35 35 35 35 33 31 31 32 34 35 35 36 36 35 35 35 33 33 35 38 41 43 43 42 41 40 35 32 36 39 40 41 41 40 38
35 35 32 30 30 31 32 33 33 34 34 32 31 31 31 32 34 35 36 35 35 36 36 34 33 34 37 40 43 43 41 41 42 36 31 35 39 39 40 41 40 38
35 34 31 29 29 30 32 33 34 35 34 33 33 32 31 32 34 35 35 35 37 38 37 34 34 36 37 38 41 42 41 42 43 37 31 34 38 40 40 39 38 36
41 40 36 32 31 33 34 34 34 33 33 34 35 33 32 33 33 33 33 34 37 39 38 35 34 37 39 39 40 43 42 42 45 39 31 29 32 34 34 33 33 33
41 41 38 34 32 33 33 32 32 32 30 32 35 34 33 32 31 31 32 33 35 38 39 37 35 37 40 39 41 43 42 43 46 41 32 28 28 27 25 24 26 28
37 37 37 35 34 36 35 32 31 31 30 31 34 33 30 30 31 32 32 32 34 36 37 37 36 38 39 40 42 43 43 45 45 41 33 29 28 27 24 21 21 22
Wind_Direction
214 215 215 214 216 218 218 219 219 220 222 224 226 230 232 233 234 234 235 235 237 239 238 241 243 242 243 242 239 236 235 234 233 235 235 231 231 232 232 232 235 241
214 215 216 214 216 219 220 221 221 220 222 225 227 230 231 233 235 236 237 236 237 239 239 242 243 242 241 241 238 234 233 233 232 234 235 233 232 233 234 233 234 240
214 214 215 214 216 219 220 221 222 222 224 226 228 230 231 233 234 236 237 237 238 238 239 242 242 241 241 240 238 234 233 233 231 233 235 234 234 234 233 233 233 238
214 214 215 215 216 219 219 217 219 221 222 224 228 230 231 232 233 235 236 237 238 238 239 241 241 239 239 239 237 233 232 233 233 233 234 234 235 234 231 230 232 237
214 215 216 215 216 218 217 216 218 219 221 224 228 229 230 231 232 232 234 236 236 237 237 239 239 238 238 238 236 233 231 231 231 232 232 234 235 233 229 228 230 233
214 215 216 217 217 217 217 218 219 220 221 224 227 229 230 231 231 231 232 234 234 234 233 235 236 235 236 236 234 233 231 229 230 231 230 231 233 231 228 228 228 229
212 215 217 217 218 218 218 219 220 221 223 225 227 229 230 230 230 231 232 233 233 232 231 233 234 233 234 234 233 232 231 230 230 231 229 229 230 229 228 227 227 226
211 213 216 217 216 216 217 218 219 222 224 225 226 229 230 230 230 231 231 232 231 231 232 233 234 233 232 233 232 231 230 229 229 229 228 226 227 227 227 227 226 225
209 210 212 214 213 213 214 215 217 221 223 224 225 227 230 230 231 230 231 231 231 231 232 233 233 232 231 232 232 231 229 229 229 229 227 225 225 226 226 226 225 224
207 208 209 210 211 212 213 213 214 217 221 224 224 225 227 230 231 230 230 231 230 231 232 232 232 230 230 231 232 232 231 230 230 230 229 227 226 226 226 226 225 223
206 207 208 209 210 212 213 213 213 213 217 221 222 222 224 228 230 229 228 229 229 231 232 232 232 230 229 229 231 232 231 231 231 231 230 229 228 228 228 228 227 226
205 206 207 208 209 210 211 211 212 211 213 216 219 220 221 224 228 228 227 228 229 231 232 233 232 230 229 229 230 231 231 230 230 232 232 231 230 230 230 230 229 229
203 205 206 206 207 208 209 209 210 211 212 213 215 217 218 220 223 226 227 228 229 230 232 233 232 230 229 229 229 230 229 228 228 229 230 231 231 232 232 232 232 231
205 206 206 205 205 206 208 208 209 211 211 211 212 214 216 218 219 222 226 228 229 230 231 232 231 230 229 228 228 228 228 228 227 227 228 229 231 233 232 232 232 232
208 207 205 205 204 206 209 209 209 210 211 211 212 214 215 217 218 219 222 225 227 228 229 230 230 229 228 227 226 226 227 227 226 227 227 228 230 232 231 231 231 232
209 207 206 206 206 208 211 211 211 212 212 212 214 215 215 216 217 217 217 221 224 226 227 227 228 229 229 228 226 226 226 226 225 226 226 227 229 229 230 231 232 232
208 207 207 207 209 210 211 211 212 212 213 214 215 215 215 216 218 217 216 218 220 222 224 226 228 230 229 228 228 227 226 225 225 226 225 225 227 228 228 230 233 234
205 206 207 207 208 209 209 210 211 212 212 213 213 213 213 215 217 217 217 218 218 220 222 225 228 231 229 228 229 228 226 224 225 226 225 223 224 227 229 231 234 234
204 204 206 207 208 208 208 209 210 211 212 212 213 213 212 214 216 217 218 219 218 220 222 223 226 230 229 228 229 229 227 225 224 225 225 223 224 227 229 232 234 233
204 205 206 207 207 206 206 207 209 212 214 214 214 213 212 214 216 217 219 220 219 221 223 223 225 228 229 228 228 229 228 225 223 225 225 225 227 229 231 234 235 234
204 205 205 205 204 203 205 207 210 212 213 213 213 213 213 214 215 216 218 219 220 222 224 226 226 227 227 227 227 227 227 225 223 223 223 226 229 231 233 237 238 237
204 205 204 204 202 202 205 207 209 211 211 209 211 213 215 215 215 217 217 218 220 222 223 225 228 227 226 225 225 225 224 223 222 220 221 226 229 231 234 237 238 237
205 205 203 202 201 202 206 208 210 211 210 208 210 213 215 215 216 217 217 217 220 221 220 221 225 226 224 222 222 221 220 219 219 219 220 224 228 232 233 234 236 235
207 207 205 202 202 205 208 209 210 212 210 209 211 214 217 218 218 218 218 217 218 220 218 217 221 223 221 219 219 218 217 217 218 218 218 221 225 229 230 231 232 232
207 208 207 206 207 209 209 210 211 212 211 211 214 217 219 220 220 220 220 218 219 221 219 216 219 222 219 217 217 216 214 215 217 216 216 219 220 221 222 224 227 227
207 208 209 209 210 211 210 209 209 211 211 212 215 218 220 222 223 224 224 222 222 224 222 219 219 221 220 217 215 214 212 212 213 213 213 217 218 215 213 213 214 217